Tracking 30922 objects as of 2-Jul-2025
HD Live streaming from Space Station
objects crossing your sky now

DELTA 2 DEB

Track DELTA 2 DEB now!
10-day predictions


NORAD ID: 26791
Int'l Code: 1992-019D
Perigee: 181.9 km
Apogee: 2,963.5 km
Inclination: 34.6 °
Period: 117.4 minutes
Semi major axis: 7943 km
RCS: 0.015 m2 (small)
Launch date: April 10, 1992
Source: United States (US)
Launch site: AIR FORCE EASTERN TEST RANGE (AFETR)

Note: This is SATELLITE DEBRIS
Your satellite tracking list
NOAA 16 DEB
Track 1 satellite(s)




NASA's NSSDC Master Catalog

Two Line Element Set (TLE):
1 26791U 92019D   25176.74281352  .00163772 -10250-5  32681-3 0  9992
2 26791  34.6077 202.6828 1750815 251.7816  88.5113 12.26217721696726
Source of the keplerian elements: AFSPC